Flag for Germany Weather past 2 weeks in Wolfsburg, Lower Saxony, Germany

Now
66 °F

Light rain. Passing clouds.


Feels Like: 66 °F
Forecast: 59 / 75 °F
Wind: 1 mph from North

Location: Celle Airport

Current Time: Jul 30, 2014 at 3:52:44 AM

Latest Report: Jul 30, 2014 at 2:20 AM


Visibility: N/A

Pressure: 29.77 "Hg

Humidity: 94%

Dew point: 64 °F

Location of WolfsburgLocation

Historic Weather in Wolfsburg — Graph

°F

Wolfsburg temperature yesterday

Maximum temperature yesterday: 82 °F (at 5:20 PM)
Minimum temperature yesterday: 66 °F (at 4:20 AM)
Average temperature yesterday: 72 °F

Past Weeks' High & Low Weather Summary

 TemperatureHumidityPressure
High91 °F (Jul 19, 4:20 PM)100% (Jul 25, 8:20 PM)30.18 "Hg (Jul 25, 8:20 PM)
Low55 °F (Jul 15, 5:20 AM)26% (Jul 19, 4:20 PM)29.74 "Hg (Jul 29, 5:20 PM)
Average71 °F68%29.99 "Hg
* Reported Jul 15 2:20 AM — Jul 30 2:20 AM, Wolfsburg, Weather by CustomWeather, © 2014

Note: Actual official high and low records may vary slightly from our data, if they occured in-between our weather recording intervals... More about our weather records

Advertising

Wolfsburg weather history for previous 24 hours

 ConditionsComfort  
Time TempWeatherWind HumidityBarometerVisibility
2:20 AM
Jul 30
66 °FLight rain. Passing clouds.1 mph94%29.77 "HgN/A
1:20 AM66 °FLight rain. Passing clouds.2 mph94%29.77 "HgN/A
12:20 AM66 °FLight rain. Partly cloudy.3 mph94%29.77 "HgN/A
11:20 PM
Jul 29
66 °FLight rain. Partly cloudy.2 mph94%29.77 "HgN/A
10:20 PM68 °FLight rain. Partly cloudy.5 mph88%29.77 "HgN/A
9:20 PM68 °FSprinkles. Broken clouds.13 mph88%29.77 "Hg6 mi
8:20 PM77 °FThundershowers. Broken clouds.6 mph61%29.74 "HgN/A
7:20 PM81 °FBroken clouds.3 mph54%29.74 "HgN/A
6:20 PM81 °FPartly sunny.6 mph51%29.74 "HgN/A
5:20 PM82 °FPartly sunny.8 mph48%29.74 "HgN/A
4:20 PM81 °FPartly sunny.8 mph58%29.77 "HgN/A
3:20 PM79 °FPartly sunny.7 mph58%29.80 "HgN/A
2:20 PM77 °FLight rain. Broken clouds.3 mph65%29.80 "HgN/A
1:20 PM75 °FPartly sunny.1 mph65%29.83 "HgN/A
12:20 PM75 °FBroken clouds.2 mph65%29.83 "HgN/A
11:20 AM73 °FBroken clouds.2 mph69%29.86 "HgN/A
10:20 AM73 °FBroken clouds.6 mph69%29.83 "HgN/A
9:20 AM72 °FPartly sunny.6 mph73%29.83 "HgN/A
8:20 AM70 °FPartly sunny.5 mph78%29.83 "HgN/A
7:20 AM66 °FBroken clouds.3 mph88%29.83 "Hg6 mi
6:20 AM66 °FPartly cloudy.3 mph88%29.83 "Hg5 mi
5:20 AM66 °FPassing clouds.5 mph88%29.83 "Hg6 mi
4:20 AM66 °FPassing clouds.5 mph88%29.83 "HgN/A
3:20 AM68 °FPassing clouds.5 mph83%29.86 "HgN/A
Weather by CustomWeather, © 2014

See weather overviewHow to use our weather pages